Nos coordonnées

Nous sommes à votre écoute du lundi au dimanche de 10:00 à 19:00 au :

+32 (0)495 19 89 53

 

Adresse d'exploitation Adresse de facturation
Chaussée de Nivelles, 629
6230 Buzet
Belgique
Kouter 107/2
9000 Gent
Belgique

contact @ blackhelicopters.be (n'oubliez pas de supprimer les espaces)


Nous retrouver

Il est très fortement conseillé de nous appeler avant de venir sur le terrain, nous pouvons être en mission ou en vol!

 

La carte ci-dessous est interactive, cherchez vos itinéraires, déplacez la pour vous retrouver.

News

Votre panier

Le panier est vide

Météo Charleroi

METAR
EBCI 200250Z 17002KT CAVOK 18/11 Q1016 NOSIG =
EBCI 192310Z 2000/2106 05005KT CAVOK BECMG 2102/2104 2000 MIFG BR PROB30 TEMPO 2103/2106 0800 BCFG
TAF
EBCI 192310Z 2000/2106 05005KT CAVOK BECMG 2102/2104 2000 MIFG BR PROB30 TEMPO 2103/2106 0800 BCFG =
Lever / Coucher : 05:27 / 17:44 UTC (Buzet 2020-09-20)